Regional Weather Roundup
Issued by NWS

Home | Current Version | Previous Version | Graphics & Text | Print | Product List | Glossary On
Versions: 1 2 3 4 5 6 7 8 9 10 11 12 13 14 15 16 17 18 19 20 21 22 23 24 25 26 27 28 29 30 31 32 33 34 35 36 37 38 39 40 41 42 43 44 45 46 47 48 49 50
000
ASUS43 KMPX 290610
RWRMN
WEATHER ROUNDUP FOR MINNESOTA
NATIONAL WEATHER SERVICE TWIN CITIES/CHANHASSEN MN
100 AM CDT FRI APR 29 2016


NOTE: "FAIR" INDICATES FEW OR NO CLOUDS BELOW 12,000 FEET WITH NO
SIGNIFICANT WEATHER AND/OR OBSTRUCTIONS TO VISIBILITY. N/A MEANS
CURRENT SKY AND/OR WEATHER CONDITIONS ARE NOT AVAILABLE.

MNZ060>063-068>070-290700-
   Twin Cities Metro

CITY           SKY/WX    TMP DP  RH WIND       PRES   REMARKS
TWIN CITIES    MOCLDY    38  35  89 SE5       30.15R
6HR MIN TEMP:  38; 6HR MAX TEMP:  41; 6HR PCP:  0.22;

ST PAUL        PTCLDY    38  36  92 CALM      30.15S
CRYSTAL        CLOUDY    39  37  92 S3        30.13R
BLAINE         PTCLDY    39  39 100 CALM      30.14R
EDEN PRAIRIE   CLOUDY    39  35  86 CALM      30.13R
6HR MIN TEMP:  39; 6HR MAX TEMP:  41; 6HR PCP:  0.18;

SOUTH ST PAUL  MOCLDY    37  37  97 CALM      30.14R
LAKE ELMO      FAIR      37  36  93 SW5       30.15R
$$
MNZ001>005-007-008-013>017-022>024-027-028-290700-
   Northwest Minnesota

CITY           SKY/WX    TMP DP  RH WIND       PRES   REMARKS
BEMIDJI        CLOUDY    40  29  62 NE3       30.14R
HALLOCK        CLOUDY    41  27  56 N6        30.19S
ROSEAU         CLOUDY    39  30  70 CALM      30.19R
WARROAD        CLOUDY    39  32  75 NE6       30.20R
THIEF RVR FALL PTCLDY    43  23  45 NE8       30.18R
CROOKSTON      CLOUDY    43  25  49 NE6       30.17S
FOSSTON        PTCLDY    41  28  60 NE6       30.15S
DETROIT LAKES  CLOUDY    41  36  81 W6        30.15R
MOORHEAD       CLOUDY    43  37  81 SE3       30.14S
PARK RAPIDS    CLEAR     39  28  64 SE7       30.14R
MAHNOMEN       FAIR      40  30  67 NE7       30.14R
$$
MNZ006-009>011-018-025>026-290700-
   North Central Minnesota

CITY           SKY/WX    TMP DP  RH WIND       PRES   REMARKS
BAUDETTE       MOCLDY    41  28  60 NE6       30.17S
FLAG ISLAND    CLOUDY    43  34  70 CALM      30.19R
INTL FALLS     MOCLDY    40  30  67 NE3       30.16R
6HR MIN TEMP:  40; 6HR MAX TEMP:  53;

WASKISH        PTCLDY    39  28  65 NE5       30.16S
BIG FORK       CLEAR     34  28  80 CALM      30.15R
LONGVILLE      CLEAR     32  27  80 CALM      30.14S
GRAND RAPIDS   CLOUDY    34  21  60 S3        30.15S
CRANE LAKE     MOCLDY    28  27  93 CALM      30.17R
ORR            PTCLDY    36  28  75 CALM      30.13R
COOK           CLEAR     34  28  80 CALM      30.15S
WALKER         FAIR      41  26  53 CALM      30.14S
$$
MNZ012-019>021-037-290700-
   Northeast Minnesota

CITY           SKY/WX    TMP DP  RH WIND       PRES   REMARKS
DULUTH         CLOUDY    32  25  75 N3        30.13S
6HR MIN TEMP:  31; 6HR MAX TEMP:  40;

ELY            PTCLDY    30  27  86 CALM      30.15R
HIBBING        CLOUDY    28  24  85 CALM      30.14S
EVELETH        CLOUDY    30  28  93 CALM      30.15S
DULUTH HARBOR  CLOUDY    37  34  87 CALM      30.16S
TWO HARBORS    CLOUDY    37  28  70 N5        30.12S
SILVER BAY     CLEAR     28  25  86 CALM      30.13S
GRAND MARAIS     N/A     31  27  85 CALM      30.16R
G MARAIS ARPRT CLEAR     28  21  74 CALM      30.13R
$$
MNZ029>031-032-039>041-046>048-054>057-064-290700-
   West Central Minnesota

CITY           SKY/WX    TMP DP  RH WIND       PRES   REMARKS
FERGUS FALLS   CLOUDY    41  37  87 CALM      30.14S
WHEATON        CLOUDY    43  39  87 CALM      30.17S
MORRIS         MOCLDY    39  37  93 CALM      30.14S
ALEXANDRIA     PTCLDY    39  37  92 CALM      30.16R
ELBOW LAKE     CLOUDY    40  38  95 CALM      30.16R
WADENA         PTCLDY    39  36  87 CALM      30.15R
GLENWOOD       CLOUDY    37  37 100 CALM      30.15S
APPLETON       CLOUDY    39  37  93 N3        30.15S
BENSON         CLOUDY    37  36  93 CALM      30.15F
ORTONVILLE     CLOUDY    39  37  93 CALM      30.14F
MADISON        CLOUDY    39  39 100 CALM      30.15R
WILLMAR        CLOUDY    39  39 100 N5        30.16S
$$
MNZ033>034-036-042>043-049>051-058-059-290700-
   Central Minnesota

CITY           SKY/WX    TMP DP  RH WIND       PRES   REMARKS
ST CLOUD       CLOUDY    39  38  96 NW6       30.14S
6HR MIN TEMP:  39; 6HR MAX TEMP:  42; 6HR PCP:  0.03;

SAUK CENTRE    CLOUDY    38  37  97 CALM      30.16R
PAYNESVILLE    CLOUDY    39  39 100 CALM      30.16S
AITKIN         PTCLDY    34  25  69 CALM      30.13S
PINE RIVER     CLEAR     36  27  69 CALM      30.18R
BRAINERD       CLOUDY    40  24  53 CALM      30.15R
STAPLES        PTCLDY    37  34  87 CALM      30.15R
LONG PRAIRIE   FAIR      36  36 100 CALM      30.16R
LITTLE FALLS   CLOUDY    39  36  87 CALM      30.15S
LITCHFIELD     DRIZZLE   37  37 100 CALM      30.15R
BUFFALO        CLOUDY    39  37  93 CALM      30.16R
MAPLE LAKE     CLOUDY    39  39  97 CALM      30.16R
HUTCHINSON     CLOUDY    38  37  97 NE5       30.14S
$$
MNZ037-044-045-052-053-290700-
   East Central Minnesota

CITY           SKY/WX    TMP DP  RH WIND       PRES   REMARKS
PRINCETON        N/A     39  37  93 CALM      30.14S
MORA           CLOUDY    36  27  69 CALM      30.16R
CAMBRIDGE      HAZE      37  32  81 CALM      30.12S VSB 3/4
RUSH CITY      CLOUDY    38  28  69 NE5       30.13S
MOOSE LAKE     MOCLDY    32  28  86 CALM      30.13S
HINCKLEY       FAIR      34  32  93 N5        30.14S WCI  30
CLOQUET        CLOUDY    28  25  86 CALM      30.14R
MCGREGOR       CLOUDY    36  30  80 CALM      30.15R
$$
MNZ071>073-080-081-089-090-097-098-290700-
   Southwest Minnesota

CITY           SKY/WX    TMP DP  RH WIND       PRES   REMARKS
MONTEVIDEO     CLOUDY    39  39 100 E3        30.16R
GRANITE FALLS  CLOUDY    40  38  93 CALM      30.16R
CANBY          CLOUDY    41  40  98 N3        30.15R
MARSHALL       CLOUDY    39  36  89 SE7       30.14R
REDWOOD FALLS  CLOUDY    38  35  89 E5        30.13S
OLIVIA         CLOUDY    37  36  93 E3        30.13S
PIPESTONE      CLOUDY    39  37  93 E7        30.10S
WINDOM         CLOUDY    39  37  93 NE8       30.12R FOG
WORTHINGTON    CLOUDY    38  36  92 NE7       30.12R
JACKSON        CLOUDY    39  36  87 NE7       30.12R
TRACY          CLOUDY    39  38  95 NE7       30.13S
SLAYTON        CLOUDY    37  37 100 NE8       30.12S FOG
$$
MNZ065>067-074>077-082>085-091>093-290700-
   South Central Minnesota

CITY           SKY/WX    TMP DP  RH WIND       PRES   REMARKS
MANKATO        CLOUDY    39  34  81 E7        30.13R
NEW ULM        MOCLDY    37  36  93 CALM      30.14R
ST JAMES       CLOUDY    34  34 100 N8        30.14R WCI  27
FAIRMONT       CLOUDY    39  30  70 NE7       30.11R
GLENCOE        CLOUDY    39  38  99 CALM      30.13S
FARIBAULT      CLOUDY    37  36  93 NE7       30.11S
OWATONNA       CLOUDY    37  36  93 E7        30.11R
WASECA         CLOUDY    39  36  87 E8        30.13R
ALBERT LEA     CLOUDY    39  39 100 NE8       30.10R
$$
MNZ078>079-086>088-094>096-290700-
   Southeast Minnesota

CITY           SKY/WX    TMP DP  RH WIND       PRES   REMARKS
ROCHESTER      CLOUDY    38  37  97 E7        30.10R
6HR MIN TEMP:  38; 6HR MAX TEMP:  40; 6HR PCP:  0.03;

RED WING       DRIZZLE   37  36  93 CALM      30.12S
STANTON        CLOUDY    38  35  89 NE5       30.12R
DODGE CENTER   CLOUDY    37  37 100 E6        30.10R
WINONA         CLOUDY    41  36  81 CALM      30.12S
AUSTIN         CLOUDY    39  36  87 NE7       30.10R
PRESTON        CLOUDY    37  35  94 E5        30.10R
$$
ABBREVIATIONS USED IN REMARKS
   TC - TEMPERATURES IN CELSIUS
  WCI - WIND CHILL INDEX
   HX - HEAT INDEX
  VSB - VISIBILITY
$$




USA.gov is the U.S. government's official web portal to all federal, state and local government web resources and services.